Maastricht, Netherlands

9:55 AM CEST on May 27, 2017 (GMT +0200)
Maastricht-Aachen

Weather History for EHBK - April, 2014

Change the Weather History Date:

Friday, April 18, 2014

  Actual Average Record
Temperature  
Mean Temperature 48 °F -  
Max Temperature 55 °F 60 °F 68 °F (2011)
Min Temperature 41 °F 43 °F 32 °F (2016)
Degree Days  
Heating Degree Days 17    
Moisture  
Dew Point 38 °F    
Average Humidity 68    
Maximum Humidity 100    
Minimum Humidity 29    
Precipitation  
Precipitation 0.00 in 0.08 in - ()
Sea Level Pressure  
Sea Level Pressure 29.98 in    
Wind  
Wind Speed 9 mph ()    
Max Wind Speed 16 mph    
Max Gust Speed -    
Visibility 7.3 miles    
Events Rain    
Averages and records for this station are not official NWS values.
T = Trace of Precipitation, MM = Missing Value Source: Averaged Metar Reports

Daily Weather History Graph

Daily Weather History Graph

Search for Another Location

Airport or City:

Trip Planner

Search our weather history database for the weather conditions in past years. The results will help you decide how hot, cold, wet, or windy it might be!

Date:

Astronomy

Apr. 18, 2014 Rise Set
Actual Time 6:36 AM CEST 8:37 PM CEST
Civil Twilight 6:01 AM CEST 9:12 PM CEST
Nautical Twilight 5:17 AM CEST 9:56 PM CEST
Astronomical Twilight 4:27 AM CEST 10:46 PM CEST
Moon No Moon Rise 8:30 AM CEST (4/18)
Length of Visible Light 15h 11m
Length of Day
14h 00m
Waning Gibbous, 89% of the Moon is Illuminated
Apr 18
Waning Gibbous
Apr 22
Last Quarter
Apr 29
New
May 7
First Quarter
May 14
Full

Hourly Weather History & Observations

Time (CEST) Temp. Windchill Dew Point Humidity Pressure Visibility Wind Dir Wind Speed Gust Speed Precip Events Conditions
12:00 AM 53 °F - 43 °F 58% 29.96 in 7 mi NW 11.2 mph - -   Overcast
12:25 AM 51.8 °F - 44.6 °F 76% 29.95 in 6.2 mi NW 9.2 mph - N/A   Drizzle
12:55 AM 50.0 °F - 46.4 °F 87% 29.95 in 5.6 mi NW 8.1 mph - N/A   Mostly Cloudy
1:00 AM 49 °F - 46 °F 86% 29.97 in 5 mi NW 8.9 mph - - Rain Rain
1:25 AM 48.2 °F - 44.6 °F 87% 29.95 in 6.2 mi NNW 9.2 mph - N/A   Drizzle
1:55 AM 46.4 °F 40.1 °F 44.6 °F 93% 29.95 in 3.7 mi NNW 15.0 mph - N/A   Light Drizzle
2:00 AM 46 °F - 45 °F 94% 29.97 in 4 mi NNW 11.2 mph - - Rain Light Rain Showers
2:25 AM 46.4 °F 42.4 °F 44.6 °F 93% 29.95 in 6.2 mi NNW 8.1 mph - N/A   Light Drizzle
2:55 AM 46.4 °F 43.5 °F 44.6 °F 93% 29.95 in 6.2 mi NW 5.8 mph - N/A   Overcast
3:00 AM 46 °F - 44 °F 92% 29.96 in 6 mi WNW 4.5 mph - - Rain Rain
3:25 AM 46.4 °F 44.3 °F 44.6 °F 93% 29.92 in 5.6 mi WNW 4.6 mph - N/A   Overcast
3:55 AM 46.4 °F 45.2 °F 44.6 °F 93% 29.92 in 5.0 mi West 3.5 mph - N/A   Unknown
4:00 AM 46 °F - 45 °F 93% 29.95 in 4 mi WNW 4.5 mph - -   Mist
4:25 AM 46.4 °F 43.5 °F 44.6 °F 93% 29.95 in 4.3 mi NW 5.8 mph - N/A   Partly Cloudy
4:55 AM 46.4 °F 43.5 °F 44.6 °F 93% 29.95 in 4.3 mi WNW 5.8 mph - N/A   Mostly Cloudy
5:00 AM 45 °F - 44 °F 94% 29.96 in 4 mi WNW 4.5 mph - -   Mist
5:25 AM 44.6 °F 42.2 °F 42.8 °F 93% 29.95 in 3.1 mi NW 4.6 mph - N/A   Mostly Cloudy
5:55 AM 42.8 °F 40.1 °F 42.8 °F 100% 29.95 in 3.1 mi NW 4.6 mph - N/A   Mist
6:00 AM 43 °F - 42 °F 95% 29.96 in 3 mi NW 4.5 mph - -   Mist
6:25 AM 42.8 °F 40.1 °F 41.0 °F 93% 29.95 in 3.7 mi NW 4.6 mph - N/A   Unknown
6:55 AM 42.8 °F 39.3 °F 41.0 °F 93% 29.95 in 5.6 mi NW 5.8 mph - N/A   Unknown
7:00 AM 42 °F - 41 °F 94% 29.96 in 6 mi NW 4.5 mph - -   Partly Cloudy
7:25 AM 42.8 °F 38.6 °F 41.0 °F 93% 29.95 in 6.2 mi NNW 6.9 mph - N/A   Unknown
7:55 AM 42.8 °F 39.3 °F 41.0 °F 93% 29.95 in 6.2 mi NNW 5.8 mph - N/A   Unknown
8:00 AM 44 °F - 40 °F 83% 29.98 in 9 mi NW 6.7 mph - -   Partly Cloudy
8:25 AM 44.6 °F 40.2 °F 41.0 °F 87% 29.95 in 6.2 mi NW 8.1 mph - N/A   Unknown
8:55 AM 44.6 °F 40.2 °F 41.0 °F 87% 29.98 in 6.2 mi NNW 8.1 mph - N/A   Scattered Clouds
9:00 AM 46 °F - 40 °F 73% 30.00 in 14 mi NNW 8.9 mph - -   Mostly Cloudy
9:25 AM 46.4 °F 41.1 °F 39.2 °F 76% 29.98 in 6.2 mi North 11.5 mph - N/A   Mostly Cloudy
9:55 AM 46.4 °F 40.7 °F 39.2 °F 76% 29.98 in 6.2 mi North 12.7 mph - N/A   Scattered Clouds
10:00 AM 47 °F - 39 °F 64% 30.00 in 14 mi North 11.2 mph - -   Partly Cloudy
10:25 AM 48.2 °F - 39.2 °F 71% 29.98 in 6.2 mi North 13.8 mph - N/A   Mostly Cloudy
10:55 AM 46.4 °F 41.1 °F 35.6 °F 66% 29.98 in 6.2 mi NW 11.5 mph - N/A   Scattered Clouds
11:00 AM 48 °F - 36 °F 52% 30.00 in 16 mi NNW 13.4 mph - -   Scattered Clouds
11:25 AM 50.0 °F - 35.6 °F 58% 29.98 in 6.2 mi North 12.7 mph - N/A   Mostly Cloudy
11:55 AM 48.2 °F - 35.6 °F 62% 29.98 in 6.2 mi NNW 11.5 mph - N/A   Scattered Clouds
12:00 PM 49 °F - 35 °F 46% 30.01 in 12 mi NNW 11.2 mph - -   Partly Cloudy
12:25 PM 48.2 °F - 33.8 °F 58% 29.98 in 6.2 mi North 11.5 mph - N/A   Scattered Clouds
12:55 PM 51.8 °F - 35.6 °F 54% 29.98 in 6.2 mi NNW 10.4 mph - N/A   Unknown
1:00 PM 51 °F - 33 °F 38% 30.01 in 15 mi North 8.9 mph - -   Partly Cloudy
1:25 PM 51.8 °F - 35.6 °F 54% 29.98 in 6.2 mi North 12.7 mph - N/A   Partly Cloudy
1:55 PM 50.0 °F - 33.8 °F 54% 29.98 in 6.2 mi NNW 15.0 mph - N/A   Mostly Cloudy
2:00 PM 52 °F - 33 °F 37% 30.01 in 19 mi NNW 11.2 mph - -   Partly Cloudy
2:25 PM 51.8 °F - 32.0 °F 47% 29.98 in 6.2 mi North 10.4 mph - N/A   Scattered Clouds
2:55 PM 53.6 °F - 33.8 °F 47% 29.98 in 6.2 mi NNW 12.7 mph - N/A   Partly Cloudy
3:00 PM 53 °F - 32 °F 32% 30.01 in 19 mi NNW 11.2 mph - -   Mostly Cloudy
3:25 PM 53.6 °F - 32.0 °F 44% 29.98 in 6.2 mi North 12.7 mph - N/A   Unknown
3:55 PM 55.4 °F - 32.0 °F 41% 29.98 in 6.2 mi NNW 15.0 mph - N/A   Unknown
4:00 PM 54 °F - 31 °F 29% 30.00 in 15 mi NNW 15.7 mph - -  
4:25 PM 53.6 °F - 32.0 °F 44% 29.98 in 6.2 mi NNW 12.7 mph - N/A   Unknown
4:55 PM 53.6 °F - 30.2 °F 41% 29.98 in 6.2 mi North 10.4 mph - N/A   Unknown
5:00 PM 53 °F - 31 °F 30% 30.00 in 22 mi North 13.4 mph - -   Overcast
5:25 PM 53.6 °F - 32.0 °F 44% 29.98 in 6.2 mi NNW 10.4 mph - N/A   Unknown
5:55 PM 51.8 °F - 33.8 °F 50% 29.98 in 6.2 mi North 11.5 mph - N/A   Unknown
6:00 PM 52 °F - 36 °F 43% 30.00 in 22 mi North 13.4 mph - -   Overcast
6:25 PM 51.8 °F - 35.6 °F 54% 29.98 in 6.2 mi NNW 11.5 mph - N/A   Partly Cloudy
6:55 PM 51.8 °F - 35.6 °F 54% 29.98 in 6.2 mi NNW 11.5 mph - N/A   Unknown
7:00 PM 51 °F - 36 °F 46% 30.00 in 22 mi NNW 13.4 mph - -   Overcast
7:25 PM 51.8 °F - 35.6 °F 54% 29.98 in 6.2 mi NNW 12.7 mph - N/A   Unknown
7:55 PM 51.8 °F - 35.6 °F 54% 29.98 in 6.2 mi NNW 12.7 mph - N/A   Mostly Cloudy
8:00 PM 51 °F - 33 °F 39% 30.00 in 22 mi North 11.2 mph - -   Partly Cloudy
8:25 PM 50.0 °F - 33.8 °F 54% 29.98 in 6.2 mi North 11.5 mph - N/A   Unknown
8:55 PM 48.2 °F - 35.6 °F 62% 29.98 in 6.2 mi North 9.2 mph - N/A   Unknown
9:00 PM 48 °F - 36 °F 51% 30.01 in 18 mi North 11.2 mph - -   Scattered Clouds
9:25 PM 46.4 °F 41.1 °F 35.6 °F 66% 30.01 in 6.2 mi North 11.5 mph - N/A   Unknown
9:55 PM 44.6 °F 40.2 °F 35.6 °F 71% 30.01 in 6.2 mi North 8.1 mph - N/A   Unknown
10:00 PM 45 °F - 35 °F 59% 30.03 in 14 mi North 8.9 mph - -  
10:25 PM 44.6 °F 40.2 °F 35.6 °F 71% 30.01 in 6.2 mi North 8.1 mph - N/A   Unknown
10:55 PM 42.8 °F 38.6 °F 35.6 °F 76% 30.01 in 6.2 mi North 6.9 mph - N/A   Unknown
11:00 PM 43 °F - 35 °F 66% 30.04 in 12 mi North 6.7 mph - -  
11:25 PM 42.8 °F 38.6 °F 35.6 °F 76% 30.01 in 6.2 mi NNW 6.9 mph - N/A   Unknown
11:55 PM 41.0 °F 39.0 °F 35.6 °F 81% 30.01 in 6.2 mi NNW 3.5 mph - N/A   Unknown